User: anonymous   Login
Location: �terpigny
(49.8910°N, 2.9249°E)
Time: 13:41:49
(UTC+00:00)
Language:

Cosmos 332 Rocket - Orbit

View from above orbital plane
View from above orbital plane
View from above satellite
View from above satellite

Ground track
Ground track

The orbit data is extracted from the following two-line orbital elements,

1 04370U 70028B   22272.54395950  .00000515  00000-0  11250-3 0  9999
2 04370  74.0419   6.3612 0014825 157.0765 203.1066 14.60348497293222
Epoch (UTC): 29 September 2022 13:03:18
Eccentricity: 0.0014825
inclination: 74.0419°
perigee height: 681 km
apogee height: 702 km
right ascension of ascending node: 6.3612°
argument of perigee: 157.0765°
revolutions per day: 14.60348497
mean anomaly at epoch: 203.1066°
orbit number at epoch: 29322

The dashed part of the orbit path shows where the satellite is in the earth's shadow,  

DLR